Theta_e
311 316 319 321 321 323 323 323 322 321 320 317 314 312 308 307 307 307 304 303 299 296 294 293 291 291 290 290 288 287 287 285 285 286 284 285 285 285 284 285 285 286 286
309 313 316 319 320 322 322 321 320 320 320 317 315 314 309 308 307 306 303 303 298 296 294 293 291 291 289 288 288 287 286 285 285 284 283 282 284 285 285 284 285 285 285
307 310 314 317 320 320 321 321 320 319 319 318 315 311 308 306 304 302 302 299 298 296 295 293 292 291 290 289 289 288 287 285 284 284 285 282 283 283 283 284 284 284 284
307 310 312 315 318 320 321 322 321 319 320 317 313 309 307 305 306 303 304 300 298 296 295 294 293 291 291 290 289 289 287 286 284 284 285 283 284 283 282 282 283 284 284
304 307 311 314 317 319 320 321 321 319 317 315 313 311 308 309 305 304 302 299 297 296 295 294 292 291 291 290 289 288 287 287 285 284 282 281 281 280 281 280 281 282 284
296 306 311 313 315 318 319 320 320 316 314 314 312 312 308 306 303 302 300 298 296 295 294 294 293 292 291 289 289 289 286 285 285 284 284 283 284 281 280 279 278 280 280
290 291 299 310 313 314 317 318 319 315 314 312 309 309 308 306 304 302 300 298 296 295 294 294 292 292 291 290 290 288 288 285 284 284 284 284 284 282 281 281 278 279 279
285 285 286 288 290 299 314 316 318 315 314 313 310 310 308 307 306 304 303 300 299 300 296 294 293 292 291 290 290 289 287 285 285 284 284 284 284 283 282 282 280 277 278
281 282 283 284 285 289 293 310 317 317 315 313 311 310 308 308 306 305 305 303 302 300 296 295 293 292 291 290 288 288 287 286 285 285 284 284 283 282 282 282 282 284 275
279 280 281 281 283 286 289 294 302 318 316 314 312 310 310 308 306 304 304 302 300 298 296 295 294 292 291 289 288 288 286 286 285 285 283 282 283 281 281 281 281 280 280
277 278 280 281 282 285 286 289 291 298 316 316 313 310 310 309 306 302 302 301 299 297 295 295 293 292 291 290 289 288 286 286 284 284 284 283 282 281 282 280 280 280 280
276 277 278 279 281 282 283 285 287 289 293 299 316 311 310 309 306 302 301 301 298 296 296 295 293 292 291 290 290 287 287 287 285 285 284 283 283 281 281 280 280 280 280
274 275 275 276 278 280 281 282 284 286 288 292 299 313 310 309 307 302 300 298 298 297 295 294 293 292 291 290 290 290 288 287 287 285 284 284 282 281 281 280 281 280 281
273 274 274 275 276 278 279 281 282 284 286 289 295 306 310 309 307 301 299 298 297 295 294 295 294 293 293 292 291 290 288 287 287 286 286 284 283 283 281 281 280 281 280
271 272 273 274 275 276 278 280 281 282 284 287 292 295 304 309 303 300 300 300 298 296 295 294 294 293 292 291 290 290 289 287 285 285 285 285 286 288 285 283 280 281 280
270 271 272 273 273 275 277 278 279 281 284 286 289 294 297 307 304 300 299 298 297 295 294 293 293 292 292 295 295 292 289 287 286 284 284 284 288 288 290 289 287 285 281
270 270 271 272 273 274 276 277 278 281 282 284 288 290 292 298 304 301 299 297 295 295 294 293 292 292 292 296 296 295 289 287 287 286 285 283 286 288 287 290 289 289 289
269 270 271 272 273 274 276 276 278 280 281 283 284 286 288 290 297 299 298 297 295 294 293 292 292 291 291 296 296 296 289 288 287 287 286 285 285 286 286 286 285 285 286
270 271 272 273 273 274 275 276 277 279 280 280 281 283 285 287 291 295 297 297 295 293 292 291 291 290 290 295 296 295 288 286 286 286 286 286 285 289 290 286 285 284 284
271 271 272 273 273 273 275 275 276 277 278 279 280 282 284 286 288 292 294 293 293 291 289 288 290 292 289 294 296 295 288 285 285 285 285 289 286 290 291 286 285 283 283
270 272 272 272 273 274 275 274 275 275 277 279 280 282 283 285 287 290 291 291 289 288 287 287 287 288 289 290 295 296 287 286 284 284 284 286 290 291 292 289 286 285 284
270 271 271 272 273 275 274 274 274 276 277 278 279 280 283 285 286 287 288 288 287 286 285 284 284 285 286 291 295 296 290 289 285 284 284 286 290 291 292 288 288 288 285
269 271 271 272 273 274 274 273 274 276 276 277 277 279 282 284 284 284 285 284 285 285 284 284 283 283 284 287 293 296 292 290 285 285 286 288 290 292 290 288 288 286 280
269 271 271 271 271 273 274 274 274 275 275 276 276 277 280 283 283 283 284 284 284 284 283 283 283 283 284 286 290 292 290 290 286 287 287 288 290 290 287 286 282 280 280
270 270 270 271 271 272 272 273 274 274 273 275 276 275 278 279 282 282 283 284 284 286 285 285 285 284 284 287 291 291 287 287 285 286 286 286 284 281 279 278 278 279 279
268 269 269 270 270 271 271 272 272 272 273 274 276 275 278 277 281 281 282 286 286 288 289 288 287 286 289 291 293 291 290 288 289 285 284 281 279 278 277 276 276 277 277
Wind_Speed
9 10 12 9 12 9 11 11 14 15 13 10 9 7 9 10 10 7 12 13 12 13 12 9 10 7 8 8 9 5 7 3 3 5 3 3 2 1 2 1 1 2 3
9 10 11 13 15 14 13 14 15 16 14 11 9 7 11 6 10 7 8 9 12 13 12 12 10 10 7 8 9 7 4 3 4 5 3 2 2 1 2 1 2 4 2
11 11 12 13 12 13 14 14 16 17 14 13 9 9 10 6 7 7 7 8 12 12 12 12 11 10 9 8 9 8 5 5 3 1 5 4 4 2 1 2 3 4 2
8 9 13 14 14 12 12 11 13 16 13 16 13 19 10 11 7 9 8 9 11 13 12 12 12 11 8 9 8 5 3 5 5 1 1 4 3 4 1 1 2 3 3
3 10 14 18 17 15 13 12 13 14 13 13 15 13 13 10 9 9 11 9 8 10 11 12 13 11 8 9 9 8 6 3 5 4 3 2 2 2 3 2 2 2 3
9 7 12 8 7 10 13 12 14 14 14 12 11 15 18 15 13 11 10 8 8 8 10 11 11 11 11 11 10 8 7 6 4 3 3 4 4 4 4 3 2 2 3
12 13 11 8 10 12 13 13 14 15 17 15 13 11 12 16 19 16 12 12 8 7 12 13 12 11 11 11 10 9 8 7 5 7 4 2 2 3 3 4 2 2 2
12 14 12 10 9 6 11 12 14 15 18 16 15 13 13 9 10 13 12 11 12 13 12 12 12 12 12 11 10 8 7 6 6 7 5 4 3 3 3 5 5 2 1
12 13 12 13 12 10 10 6 13 13 15 16 13 13 12 12 10 13 11 10 9 9 12 13 12 10 11 10 10 8 9 8 7 6 6 3 3 3 3 3 4 5 3
14 14 12 12 12 11 10 10 9 15 15 15 13 12 14 13 11 11 12 12 11 11 12 13 12 11 11 11 11 7 6 9 5 5 7 5 4 4 3 3 3 2 4
13 12 11 12 12 12 12 12 12 11 9 16 15 16 13 12 11 11 11 11 9 11 12 13 13 14 13 11 10 9 9 11 8 6 8 8 6 5 4 3 2 3 3
12 12 12 13 13 13 12 12 12 11 10 9 9 12 14 14 13 11 12 12 12 11 13 13 12 12 13 13 14 12 11 12 12 11 8 8 6 7 5 4 5 4 4
13 14 14 14 13 13 13 12 11 12 11 10 8 10 12 14 14 14 14 13 14 13 11 12 13 13 13 13 14 12 12 13 13 12 12 11 10 8 6 5 5 4 3
14 13 13 15 14 13 12 12 12 11 12 10 9 5 12 14 13 13 14 12 12 12 12 13 12 12 12 13 13 13 12 12 10 11 13 11 14 13 11 8 7 5 5
16 15 16 14 14 14 13 13 11 11 11 10 9 9 7 12 13 14 14 13 13 13 14 13 11 11 11 10 12 12 12 11 10 9 10 11 14 18 15 9 8 8 5
17 17 17 16 15 16 14 14 13 12 11 10 10 9 10 10 14 14 13 12 11 10 11 10 11 11 9 16 20 15 11 11 11 10 10 10 16 17 21 19 18 15 10
18 17 16 14 13 13 14 14 13 11 11 10 10 9 10 7 10 13 14 13 13 11 11 11 11 11 11 18 21 21 10 10 11 11 10 9 9 15 11 18 17 17 16
16 15 13 14 12 11 11 13 12 11 10 9 10 10 10 10 6 10 13 11 11 12 11 10 10 9 9 17 19 20 8 9 9 11 12 13 12 13 13 12 9 8 7
12 12 12 13 13 11 11 11 11 10 9 10 10 10 9 9 9 4 8 10 10 10 10 10 11 12 10 18 19 18 9 9 11 10 10 11 11 18 22 13 12 9 6
12 12 13 12 11 11 11 10 9 10 10 10 10 9 8 7 7 6 4 4 4 5 5 5 8 11 8 17 20 18 8 8 6 7 9 19 12 21 25 14 13 12 10
13 13 11 10 10 10 10 9 9 8 9 10 11 10 8 7 6 5 2 4 5 5 5 6 4 5 7 9 18 20 9 8 7 7 7 7 21 23 26 19 12 12 11
15 13 10 11 11 9 8 9 8 9 9 8 9 10 8 6 4 4 1 4 6 6 6 5 4 3 5 12 19 22 17 14 8 7 6 8 20 20 23 16 18 18 14
12 11 10 11 10 9 8 8 9 9 9 10 8 8 9 7 4 1 2 2 4 5 6 6 5 5 4 5 16 20 19 16 7 7 10 14 18 19 18 17 19 18 7
12 10 10 11 11 10 10 8 9 8 8 10 9 8 6 7 3 1 2 3 3 4 5 6 5 5 5 4 5 9 11 14 8 11 9 12 15 14 14 12 10 6 5
9 9 9 9 10 11 10 9 9 8 7 7 8 7 5 4 3 1 2 2 1 3 4 5 6 7 7 9 13 12 9 7 9 9 7 9 8 8 8 8 7 6 5
10 10 10 9 11 11 11 10 9 7 7 8 7 5 5 3 2 2 0 3 4 7 7 7 7 3 6 14 16 18 18 19 21 9 8 8 8 9 8 8 7 5 7
Wind_Direction
183 169 177 164 164 131 148 162 156 154 150 149 143 145 145 136 131 144 143 153 153 150 147 141 145 146 150 146 138 111 125 95 147 105 54 44 79 183 195 197 196 220 137
164 167 170 196 168 164 158 160 158 164 167 156 153 146 135 132 117 133 150 152 156 155 153 149 157 150 134 139 151 144 136 112 193 127 115 122 342 282 202 194 210 232 154
189 175 176 172 172 161 162 164 167 165 162 153 141 114 102 116 106 131 155 157 164 160 155 156 155 153 153 162 165 158 158 139 185 49 138 111 207 139 23 223 224 220 183
189 196 176 177 179 165 162 164 172 168 172 161 155 154 150 163 157 163 168 163 171 165 157 158 157 158 157 162 169 162 162 129 151 156 77 70 127 152 112 314 256 238 205
277 186 193 190 182 159 169 173 171 167 158 171 162 162 160 154 145 152 161 165 165 168 165 162 153 162 165 163 169 160 175 156 145 145 150 112 76 76 124 175 254 299 242
19 234 186 166 187 170 160 170 171 165 159 163 165 175 159 147 154 155 160 164 166 164 172 167 169 168 169 167 176 175 173 168 134 146 160 154 159 181 146 121 187 204 245
60 33 36 153 161 181 181 180 174 167 165 163 162 157 162 159 161 164 162 160 173 181 186 177 174 176 175 170 166 175 176 182 159 170 184 153 158 136 126 112 129 184 288
46 62 23 21 16 5 203 191 190 169 166 169 172 168 165 167 164 169 161 179 187 192 175 178 180 177 174 173 176 183 177 165 166 173 166 171 183 173 152 147 140 50 289
43 46 35 18 13 12 3 256 196 183 176 175 171 173 167 167 168 165 166 180 185 176 171 175 172 172 173 169 171 180 174 177 168 175 181 170 177 185 166 145 149 146 169
26 33 29 23 14 12 6 7 333 186 183 174 176 177 173 174 162 160 170 176 177 164 169 172 174 176 176 176 175 178 166 181 169 162 174 174 160 179 179 159 146 125 144
14 22 16 27 20 17 18 20 20 3 195 178 176 175 172 168 156 162 172 177 164 169 165 178 177 180 181 179 182 186 176 183 167 170 179 187 160 171 172 162 142 146 138
13 14 14 27 19 18 12 21 17 15 358 348 183 178 161 163 162 169 175 171 174 174 181 179 180 183 183 182 190 186 184 184 185 180 172 181 173 175 163 173 180 171 156
13 16 4 27 14 12 7 13 14 5 358 347 346 172 169 167 176 169 166 170 175 184 179 173 184 186 184 185 195 191 187 191 195 178 183 183 168 179 173 172 179 163 141
22 12 1 22 9 6 357 6 4 2 351 354 350 324 167 170 176 162 163 176 180 175 182 187 193 186 186 189 192 194 188 189 192 182 187 179 184 186 179 179 182 152 159
13 9 7 8 3 360 355 357 357 352 348 358 359 353 320 176 157 162 172 181 180 185 187 183 185 183 185 189 186 188 190 187 183 185 184 188 193 191 181 169 176 159 165
4 5 358 359 356 354 347 344 346 344 345 358 356 352 338 190 172 170 173 179 190 180 176 170 179 181 189 192 189 181 184 187 185 189 190 189 191 193 189 188 184 173 170
358 356 346 347 346 342 337 338 335 336 347 354 354 355 356 339 187 175 167 174 183 180 182 184 181 186 192 190 191 191 180 183 189 191 189 190 193 186 181 192 186 191 188
346 340 337 335 337 333 333 330 333 340 348 356 357 354 355 348 329 177 178 180 178 183 184 182 185 182 199 196 194 192 180 186 193 195 191 192 185 184 171 167 167 168 182
334 331 331 328 327 329 330 325 327 340 352 1 352 340 349 339 338 230 188 182 171 175 180 181 177 189 193 190 193 187 174 182 184 183 191 191 185 185 179 167 161 158 165
336 331 328 325 319 323 324 323 332 342 354 347 329 322 332 329 322 314 203 152 169 173 138 163 184 190 178 187 188 182 169 173 168 178 185 191 183 189 185 169 165 167 172
328 327 325 315 312 319 321 323 333 337 335 329 321 317 323 315 300 295 209 146 143 137 148 154 149 169 172 190 194 187 172 179 171 174 179 196 199 193 187 175 169 175 145
326 327 318 315 318 322 320 324 325 325 324 322 317 314 312 308 299 295 222 138 135 143 138 137 133 161 170 184 194 193 183 176 162 172 183 189 194 196 180 168 159 151 139
318 317 316 318 321 324 323 325 322 327 330 323 314 312 311 299 304 272 191 124 143 154 154 158 166 175 175 186 197 196 178 180 169 167 178 173 183 180 161 160 154 136 130
323 321 328 325 325 327 327 326 323 326 321 323 318 307 310 310 301 190 157 135 161 157 159 166 165 167 168 170 177 185 169 184 172 169 169 172 164 149 145 142 114 109 118
317 326 324 322 324 331 329 326 326 325 320 321 315 306 305 301 280 232 184 158 168 192 186 188 174 169 177 194 185 170 162 156 150 144 147 148 142 127 117 109 106 110 112
322 325 329 332 334 334 325 320 318 322 320 323 320 306 311 302 288 263 103 233 223 219 222 208 177 168 182 173 173 163 162 151 155 149 145 140 135 134 129 125 123 128 120